Voltar ao catálogo

JASON 3

AtivoCiênciaLEO
NORAD 41240·PAYLOAD·🇺🇸 United States

Lançado Jan 17, 2016 de Vandenberg Space Force Base

Loading…

Próximas Passagens (próximas 24 horas)

TLE

AtualizadoSource: CelesTrak SupGP

Época: Sep 14, 2026, 00:00 UTC

1 41240C 16002A   26257.00000000 -.00000024  00000+0 -94568-4 0  2572
2 41240  66.0415 299.1143 0008610 268.2425  34.0422 12.87627795    18

Acompanhe JASON 3 em tempo real com AllMySat

Download on the App Store